Vorticity
24 14 10 11 15 10 5 10 21 28 28 -0 6 13 22 -13 -2 -13 17 25 -8 30 31 16 0 10 17 15 5 4 9 3 1 10 8 4 9 13 16 16 12 16 21 24 25 29 27 36 37 41 51 50 45 38
21 11 -1 16 14 12 9 7 6 25 8 -19 -4 10 14 -9 26 45 40 36 27 -7 -2 19 11 14 10 11 5 3 10 8 9 7 9 12 13 13 11 18 23 27 33 31 37 27 29 28 19 12 9 17 21 16
11 9 11 16 19 16 8 10 -4 18 4 14 25 18 35 26 3 17 8 6 -11 8 10 7 5 9 7 8 12 9 8 7 8 18 8 9 13 19 19 22 37 39 33 30 21 4 8 6 10 10 10 9 8 4
24 4 6 15 26 22 18 14 -2 -1 9 5 21 22 12 28 10 6 5 5 21 16 14 11 2 2 13 14 10 2 11 15 11 13 15 16 19 21 32 30 25 22 12 4 0 5 8 7 6 5 6 7 11 7
12 5 8 9 11 18 19 21 25 17 -12 8 4 38 25 15 15 14 9 5 3 6 11 -0 6 7 7 4 17 15 13 10 14 18 17 20 19 41 24 23 11 5 7 6 5 8 2 -1 0 6 7 8 9 11
14 20 3 -3 8 20 16 18 12 -12 1 -21 -20 -11 -9 9 28 1 14 6 3 5 8 7 12 12 20 15 12 13 12 19 16 17 14 19 32 19 20 13 0 8 9 10 10 6 10 9 11 12 12 8 8 9
23 25 15 16 3 -7 14 9 8 -8 24 27 -43 5 13 19 10 14 7 5 8 9 13 21 19 13 10 10 14 18 14 15 18 17 24 24 14 5 9 10 9 13 10 8 8 10 12 12 10 7 7 5 4 5
-13 4 11 16 18 2 19 10 -11 1 -16 -20 7 11 15 17 11 7 14 15 19 19 17 11 5 13 14 12 17 13 13 15 15 16 12 1 5 3 9 5 5 7 6 4 -1 0 1 2 6 7 4 5 6 5
3 -4 6 3 14 15 -0 12 17 9 2 1 11 16 26 14 12 12 15 19 15 9 11 14 14 14 16 14 13 11 17 17 10 8 7 6 5 8 4 7 5 4 4 3 3 6 8 6 5 5 5 4 4 4
8 17 16 3 0 10 13 4 4 13 13 17 17 16 10 14 22 18 19 13 12 9 13 9 17 15 19 14 11 15 11 6 8 10 8 12 11 7 8 6 5 8 7 6 6 9 8 7 8 9 8 5 0 -1
13 12 12 7 17 8 12 18 20 20 11 5 13 24 20 13 13 10 9 9 9 14 9 11 12 8 10 10 10 9 7 8 11 10 13 14 19 18 18 19 21 21 19 19 18 17 13 13 12 9 9 11 13 16
10 18 12 17 13 4 -2 7 23 27 26 23 13 12 13 12 11 11 10 7 10 9 15 13 9 10 10 7 9 9 10 10 14 14 14 17 15 16 16 14 14 17 11 7 9 10 16 9 7 -11 20 -3 10 12
15 19 22 24 24 28 26 21 17 13 12 10 11 8 5 4 8 4 12 17 14 13 11 9 9 9 10 8 12 11 11 11 11 10 10 4 17 10 19 20 28 11 -1 -2 14 -13 -20 -3 -1 6 9 4 5 7
20 18 17 15 12 11 10 9 7 6 8 6 5 5 11 20 22 17 14 13 10 9 8 10 10 9 8 11 10 8 7 8 10 10 7 9 12 8 14 11 5 4 2 3 -0 -1 -4 -6 -9 -4 6 11 11 12
7 7 6 5 5 6 7 7 6 4 5 11 11 10 11 8 8 8 8 10 10 11 12 9 9 11 11 10 11 9 8 8 8 7 10 10 10 10 10 10 12 13 15 16 16 17 20 19 19 15 12 9 10 11
6 7 7 8 8 9 8 8 8 8 9 10 12 13 12 13 12 12 11 11 12 12 11 10 10 12 11 10 10 8 9 7 8 8 8 10 10 12 13 13 13 10 10 10 8 7 8 11 9 5 12 19 20 20
10 10 10 11 12 13 14 13 15 14 14 14 14 12 11 10 11 11 10 11 10 11 10 11 11 9 10 9 7 9 8 8 9 10 10 11 11 11 11 10 9 9 10 11 9 10 10 6 7 16 19 18 17 16
14 13 14 13 14 14 14 14 14 14 12 11 11 10 11 11 10 10 11 11 10 10 11 11 11 9 8 9 9 8 8 8 8 8 9 9 10 13 13 14 15 13 12 11 9 10 15 18 15 13 14 15 15 15
11 11 12 12 14 13 13 12 14 12 12 12 11 11 11 11 11 12 12 11 11 12 12 10 10 11 10 10 8 8 7 7 7 8 9 11 13 13 15 16 14 15 15 15 16 14 17 22 24 28 31 33 33 34
9 9 9 9 9 8 9 10 12 10 10 11 11 10 11 12 12 12 12 11 11 12 11 10 10 11 9 7 6 6 6 6 9 10 11 13 15 17 18 16 14 11 14 20 26 31 36 34 25 19 17 16 14 14
12 7 9 11 6 8 8 5 8 8 8 12 10 9 10 11 11 11 11 11 11 13 10 10 9 9 8 6 7 6 6 9 11 14 15 18 19 14 12 9 17 27 43 41 27 16 9 13 17 16 19 22 23 25
12 10 9 9 12 10 13 11 10 9 13 9 12 9 9 10 10 8 10 13 11 10 10 9 9 9 6 5 5 5 6 10 12 16 20 17 12 9 16 36 45 26 14 12 14 18 24 22 17 17 15 16 18 18
11 9 9 8 12 12 8 11 11 8 11 7 10 10 8 10 7 8 10 9 9 10 9 9 10 10 6 4 5 5 7 11 14 18 17 13 11 27 43 24 12 17 22 22 22 21 22 17 16 17 18 18 17 17
6 6 6 7 8 6 9 7 8 8 7 10 8 9 10 10 6 8 8 8 8 9 9 9 11 11 6 4 5 4 8 11 16 19 14 13 29 40 14 20 24 19 19 22 22 22 21 20 17 17 19 21 19 20
5 2 5 6 6 7 7 8 7 9 6 6 8 6 9 8 8 9 8 5 8 8 8 9 11 10 7 4 3 4 9 13 16 16 14 22 40 18 25 21 18 20 22 23 23 18 17 18 17 18 18 19 19 18
11 7 5 4 5 7 5 7 7 7 8 7 7 6 7 5 6 7 6 5 6 7 7 9 10 9 7 4 3 4 6 11 15 17 16 30 30 23 23 19 23 25 25 22 18 17 18 18 17 18 18 17 16 17
11 13 14 11 8 6 8 7 6 7 7 8 6 8 6 6 7 7 7 5 5 6 7 7 9 8 7 5 2 3 5 10 16 16 19 31 26 25 22 23 23 23 21 19 18 19 18 18 18 16 15 15 15 13
10 9 1 6 11 6 6 8 6 5 10 4 6 6 10 5 5 6 7 8 6 6 6 6 7 9 8 5 3 2 4 7 14 16 18 30 27 24 22 20 20 22 23 21 18 16 16 16 16 16 14 13 11 10
5 4 6 8 12 11 5 6 8 11 5 8 7 6 6 5 6 7 7 7 7 7 7 6 6 6 8 7 5 2 3 5 11 15 17 26 28 22 20 18 17 19 21 22 21 18 15 14 15 16 14 12 11 11
5 6 6 8 8 7 -0 9 6 12 17 8 8 5 8 6 6 8 8 6 7 8 8 8 7 5 6 9 6 2 2 5 8 16 17 24 28 23 17 14 13 14 17 19 21 22 19 17 15 13 13 12 11 10
11 12 11 10 10 7 6 9 13 12 13 13 8 8 9 8 8 8 9 7 8 8 8 9 9 8 6 6 7 4 3 4 6 11 18 19 29 26 20 14 12 12 11 11 12 13 16 18 19 18 14 11 9 11
32 26 29 35 38 30 24 25 23 17 9 9 13 12 8 9 11 9 7 8 8 8 6 8 9 10 7 6 7 6 4 3 4 6 16 17 24 29 25 16 11 10 9 9 10 10 10 10 11 12 14 16 17 17
12 9 -3 -13 -11 -3 1 17 30 29 22 14 16 14 7 10 10 8 8 9 9 8 7 6 9 11 9 7 7 8 6 3 3 5 8 17 17 27 28 24 15 11 10 10 10 10 9 9 10 10 10 11 11 11
Height
5377 5401 5420 5438 5453 5470 5484 5498 5509 5525 5538 5549 5554 5561 5568 5574 5578 5584 5588 5590 5591 5591 5592 5593 5593 5593 5591 5588 5587 5587 5584 5581 5577 5573 5569 5563 5557 5550 5545 5537 5530 5523 5514 5505 5495 5485 5479 5470 5464 5459 5461 5457 5452 5447
5380 5403 5421 5438 5453 5467 5482 5496 5506 5520 5531 5540 5547 5553 5559 5566 5571 5574 5576 5578 5581 5582 5581 5581 5581 5582 5580 5577 5575 5572 5571 5567 5563 5559 5554 5546 5541 5534 5528 5525 5514 5511 5501 5496 5488 5481 5474 5468 5463 5458 5454 5452 5448 5443
5384 5406 5424 5439 5452 5467 5479 5492 5503 5516 5527 5537 5543 5547 5550 5558 5561 5565 5566 5568 5571 5571 5570 5570 5570 5570 5568 5566 5563 5561 5556 5553 5549 5545 5539 5533 5528 5523 5517 5511 5502 5496 5492 5486 5481 5477 5474 5470 5466 5461 5457 5453 5449 5445
5387 5408 5423 5437 5451 5464 5477 5489 5502 5513 5522 5529 5535 5537 5542 5550 5554 5556 5558 5559 5561 5561 5560 5560 5559 5559 5556 5554 5551 5549 5545 5539 5535 5531 5524 5520 5518 5511 5504 5499 5495 5490 5487 5485 5480 5476 5472 5468 5465 5462 5458 5455 5452 5447
5392 5411 5426 5442 5454 5466 5477 5490 5500 5509 5515 5521 5526 5530 5538 5542 5546 5548 5549 5549 5550 5551 5551 5550 5548 5545 5543 5542 5539 5535 5531 5526 5523 5518 5515 5512 5507 5502 5496 5493 5489 5487 5485 5482 5478 5474 5470 5467 5464 5460 5457 5455 5452 5448
5400 5417 5429 5443 5454 5466 5478 5487 5494 5499 5506 5516 5518 5525 5532 5535 5538 5538 5538 5539 5540 5540 5539 5538 5536 5534 5532 5530 5526 5521 5517 5515 5513 5511 5507 5503 5498 5494 5491 5487 5486 5485 5484 5480 5474 5471 5468 5464 5461 5458 5455 5452 5450 5447
5407 5420 5434 5447 5459 5468 5479 5486 5492 5498 5505 5511 5513 5518 5524 5527 5529 5530 5531 5530 5530 5530 5530 5528 5524 5523 5522 5518 5515 5512 5509 5508 5505 5501 5499 5494 5490 5489 5485 5482 5480 5479 5477 5475 5471 5468 5464 5460 5457 5455 5452 5449 5447 5444
5416 5428 5438 5448 5458 5466 5474 5482 5488 5495 5499 5504 5509 5514 5514 5519 5519 5519 5521 5520 5520 5520 5520 5517 5514 5513 5510 5509 5509 5506 5503 5501 5499 5494 5490 5487 5485 5484 5482 5478 5473 5470 5469 5467 5466 5462 5459 5455 5453 5450 5447 5445 5443 5441
5417 5429 5439 5449 5457 5465 5473 5479 5484 5489 5493 5496 5501 5506 5509 5511 5508 5510 5512 5511 5510 5511 5510 5507 5504 5505 5503 5503 5502 5500 5496 5493 5491 5486 5483 5482 5481 5478 5475 5473 5469 5464 5462 5460 5458 5455 5451 5448 5445 5443 5441 5438 5436 5434
5423 5432 5440 5448 5455 5461 5467 5474 5480 5485 5489 5492 5498 5501 5499 5500 5500 5504 5504 5501 5502 5505 5503 5501 5500 5502 5500 5494 5495 5494 5489 5484 5482 5480 5477 5475 5475 5468 5466 5463 5459 5455 5452 5450 5448 5445 5442 5439 5436 5434 5431 5429 5427 5424
5428 5436 5441 5447 5453 5459 5465 5471 5476 5480 5485 5488 5490 5492 5494 5494 5494 5496 5498 5500 5499 5499 5498 5496 5495 5493 5492 5488 5485 5484 5481 5477 5475 5472 5469 5468 5466 5460 5455 5452 5448 5444 5441 5439 5436 5434 5431 5428 5425 5423 5420 5418 5415 5413
5433 5439 5446 5452 5457 5463 5467 5472 5476 5480 5482 5484 5488 5489 5488 5490 5493 5495 5496 5494 5494 5495 5491 5490 5489 5488 5486 5481 5479 5478 5475 5470 5466 5461 5458 5457 5454 5451 5447 5443 5438 5435 5431 5429 5426 5423 5420 5417 5413 5410 5407 5404 5401 5399
5434 5439 5444 5448 5453 5458 5463 5467 5471 5474 5477 5479 5482 5485 5487 5487 5488 5490 5489 5488 5491 5490 5487 5485 5484 5482 5478 5475 5473 5470 5468 5464 5459 5454 5450 5447 5443 5439 5435 5431 5428 5424 5421 5418 5415 5412 5408 5405 5402 5397 5393 5389 5386 5383
5437 5441 5446 5450 5454 5458 5463 5466 5468 5472 5476 5479 5481 5484 5485 5486 5485 5485 5485 5486 5485 5482 5482 5481 5480 5477 5472 5470 5467 5464 5461 5457 5451 5447 5442 5438 5434 5430 5427 5423 5418 5415 5411 5407 5402 5397 5393 5389 5384 5379 5375 5371 5368 5365
5440 5445 5449 5452 5456 5459 5463 5466 5470 5473 5475 5478 5479 5480 5482 5483 5482 5482 5482 5481 5481 5483 5480 5477 5474 5473 5468 5464 5461 5457 5453 5449 5443 5438 5433 5429 5425 5420 5415 5410 5406 5401 5397 5392 5386 5380 5375 5370 5365 5359 5352 5347 5342 5339
5445 5448 5452 5455 5459 5462 5466 5469 5471 5474 5475 5478 5480 5481 5481 5482 5482 5481 5480 5480 5478 5474 5473 5473 5471 5467 5463 5459 5455 5450 5446 5441 5436 5430 5424 5419 5414 5408 5402 5396 5390 5384 5379 5374 5368 5362 5356 5350 5344 5338 5332 5326 5320 5316
5449 5452 5455 5459 5461 5464 5467 5470 5473 5474 5476 5477 5478 5479 5480 5479 5479 5478 5476 5474 5472 5471 5470 5468 5464 5460 5456 5452 5448 5444 5439 5433 5427 5421 5414 5407 5401 5394 5388 5381 5374 5367 5361 5355 5348 5341 5334 5328 5321 5315 5309 5303 5297 5293
5453 5456 5458 5461 5464 5466 5468 5470 5472 5473 5474 5475 5475 5475 5475 5474 5473 5472 5471 5470 5469 5466 5464 5461 5458 5454 5449 5446 5442 5436 5430 5424 5417 5409 5402 5395 5387 5379 5371 5364 5357 5350 5342 5334 5326 5319 5312 5305 5297 5290 5284 5279 5273 5269
5455 5458 5460 5462 5464 5466 5467 5468 5469 5470 5470 5471 5471 5471 5470 5470 5469 5468 5467 5466 5464 5461 5459 5455 5451 5448 5444 5440 5435 5429 5422 5415 5407 5399 5390 5381 5373 5363 5355 5347 5338 5330 5321 5313 5304 5295 5288 5280 5273 5266 5260 5254 5249 5245
5457 5459 5460 5462 5463 5464 5466 5467 5467 5468 5468 5469 5468 5467 5467 5467 5466 5465 5464 5462 5459 5456 5453 5449 5446 5442 5439 5434 5429 5422 5415 5406 5397 5388 5378 5367 5357 5347 5337 5328 5319 5310 5301 5291 5282 5273 5266 5260 5254 5248 5243 5237 5232 5227
5459 5460 5461 5462 5463 5464 5465 5466 5466 5466 5466 5466 5466 5465 5465 5464 5463 5461 5459 5457 5454 5452 5448 5445 5441 5437 5433 5428 5422 5415 5407 5397 5387 5377 5365 5353 5341 5330 5319 5310 5300 5290 5280 5272 5265 5258 5252 5247 5241 5235 5229 5223 5217 5212
5460 5461 5462 5463 5464 5464 5465 5465 5466 5465 5465 5465 5464 5463 5462 5460 5458 5456 5454 5452 5449 5446 5443 5440 5436 5432 5428 5422 5415 5408 5398 5388 5376 5363 5351 5338 5327 5316 5304 5293 5282 5274 5267 5260 5253 5246 5240 5235 5230 5224 5219 5213 5207 5201
5461 5462 5462 5463 5464 5464 5465 5464 5464 5463 5463 5462 5461 5460 5458 5456 5454 5452 5450 5447 5445 5442 5439 5435 5431 5427 5422 5416 5409 5400 5389 5377 5365 5352 5339 5327 5314 5300 5288 5279 5271 5263 5256 5248 5241 5235 5229 5225 5221 5215 5210 5204 5199 5193
5461 5462 5462 5462 5463 5463 5463 5462 5462 5461 5461 5459 5458 5456 5455 5453 5451 5449 5446 5444 5441 5438 5435 5431 5426 5421 5416 5410 5402 5392 5381 5369 5356 5343 5330 5317 5302 5289 5279 5270 5261 5254 5247 5240 5233 5228 5223 5219 5214 5208 5203 5198 5192 5187
5461 5462 5462 5461 5461 5461 5460 5460 5459 5458 5457 5456 5455 5453 5452 5450 5448 5446 5443 5441 5438 5434 5430 5426 5421 5416 5410 5403 5395 5385 5374 5362 5349 5335 5321 5307 5292 5281 5271 5262 5253 5246 5239 5233 5227 5222 5218 5213 5209 5204 5199 5194 5189 5184
5457 5458 5458 5458 5458 5458 5457 5456 5456 5455 5453 5452 5451 5449 5447 5446 5444 5442 5439 5436 5433 5429 5425 5420 5415 5410 5404 5397 5389 5380 5368 5356 5342 5328 5314 5300 5287 5277 5267 5258 5250 5242 5235 5230 5225 5220 5216 5211 5207 5203 5199 5194 5189 5184
5452 5452 5452 5453 5453 5452 5452 5451 5450 5450 5449 5447 5446 5445 5443 5441 5438 5437 5434 5430 5427 5423 5419 5415 5409 5404 5398 5391 5383 5374 5362 5350 5337 5324 5309 5296 5284 5274 5265 5257 5249 5242 5235 5230 5225 5220 5216 5212 5208 5204 5199 5195 5191 5186
5446 5446 5447 5447 5446 5445 5445 5445 5444 5443 5443 5441 5440 5438 5437 5435 5433 5430 5427 5424 5421 5417 5413 5409 5403 5398 5392 5385 5378 5369 5358 5347 5334 5321 5307 5295 5283 5273 5264 5257 5250 5243 5237 5231 5227 5222 5218 5214 5209 5205 5201 5197 5193 5189
5439 5440 5440 5439 5438 5438 5437 5436 5436 5435 5435 5435 5433 5431 5430 5427 5426 5424 5421 5418 5415 5411 5408 5403 5398 5393 5387 5380 5373 5364 5355 5344 5332 5318 5305 5292 5280 5273 5266 5259 5252 5246 5240 5234 5229 5225 5220 5216 5212 5208 5205 5201 5198 5193
5429 5430 5430 5430 5430 5428 5427 5427 5427 5427 5427 5427 5425 5423 5422 5420 5419 5417 5414 5412 5409 5406 5402 5397 5393 5387 5381 5375 5368 5361 5353 5342 5330 5318 5305 5294 5283 5275 5268 5262 5256 5251 5245 5239 5233 5228 5224 5219 5216 5211 5208 5204 5200 5197
5419 5419 5420 5420 5420 5418 5419 5419 5419 5418 5417 5416 5416 5416 5414 5413 5411 5409 5408 5405 5403 5400 5396 5391 5387 5382 5376 5371 5365 5358 5350 5341 5330 5319 5307 5296 5286 5277 5270 5265 5260 5255 5249 5243 5238 5233 5228 5224 5219 5216 5212 5209 5205 5202
5408 5408 5409 5409 5409 5408 5407 5407 5407 5408 5407 5407 5407 5408 5407 5406 5404 5403 5400 5398 5396 5393 5389 5385 5381 5377 5372 5367 5362 5355 5348 5340 5331 5321 5310 5299 5289 5280 5273 5268 5263 5258 5253 5248 5243 5239 5234 5229 5225 5221 5217 5213 5209 5205
5402 5402 5402 5402 5401 5400 5399 5398 5397 5397 5397 5397 5398 5399 5399 5398 5397 5396 5393 5391 5388 5385 5382 5379 5375 5371 5367 5363 5358 5352 5346 5339 5331 5322 5313 5302 5292 5283 5276 5270 5265 5260 5256 5252 5247 5243 5239 5234 5230 5226 5222 5218 5214 5210